Station History

Weather Underground - logo

Station Historical Data
Daily Summary for February 20, 2018 Units:  Metric    English   Both
« Previous Day
Next Day »
Daily Weekly Monthly Yearly Custom
  High: Low: Average:
Temperature: 13.3 °C -2.4 °C 5.3 °C
Dew Point: 0.8 °C -5.1 °C -2 °C
Humidity: 89 % 32 % 63 %
Wind Speed: 9.3 km/h 0 km/h 1.6 km/h
Wind Gust: 9.3 km/h - -
Wind:- - SSW
Pressure: 1025.6 hPa 1020.5 hPa -
Precipitation: 0 mm    
Historical Graphs
 
 
Tabular Data for February 20, 2018
Time Temperature Dew Point Pressure Wind Wind Speed Wind Gust Humidity Rainfall Rate (Hourly)
00:01 0.2 °C -1.9 °C 1020.9 hPa Calm     86 % 0 mm
00:06 0.2 °C -2.1 °C 1020.9 hPa Calm     85 % 0 mm
00:11 0.2 °C -1.9 °C 1020.9 hPa Calm     86 % 0 mm
00:16 0.1 °C -2 °C 1020.9 hPa Calm     86 % 0 mm
00:21 0 °C -2.1 °C 1020.9 hPa Calm     86 % 0 mm
00:26 0 °C -2.1 °C 1020.5 hPa Calm     86 % 0 mm
00:31 -0.1 °C -2.3 °C 1020.9 hPa Calm     85 % 0 mm
00:36 -0.1 °C -2.3 °C 1020.9 hPa Calm     85 % 0 mm
00:41 -0.2 °C -2.4 °C 1020.9 hPa Calm     85 % 0 mm
00:46 -0.3 °C -2.3 °C 1020.9 hPa Calm     86 % 0 mm
00:51 -0.4 °C -2.4 °C 1020.9 hPa Calm     86 % 0 mm
00:56 -0.6 °C -2.6 °C 1020.9 hPa Calm     86 % 0 mm
01:01 -0.7 °C -2.6 °C 1020.9 hPa Calm     87 % 0 mm
01:06 -0.8 °C -2.7 °C 1021.2 hPa Calm     87 % 0 mm
01:11 -0.9 °C -2.8 °C 1021.2 hPa Calm     87 % 0 mm
01:16 -0.9 °C -2.8 °C 1021.2 hPa Calm     87 % 0 mm
01:21 -0.9 °C -2.8 °C 1021.2 hPa Calm     87 % 0 mm
01:26 -0.9 °C -2.8 °C 1021.2 hPa Calm     87 % 0 mm
01:31 -0.8 °C -2.7 °C 1021.2 hPa Calm     87 % 0 mm
01:36 -0.9 °C -2.8 °C 1021.2 hPa Calm     87 % 0 mm
01:41 -0.9 °C -2.7 °C 1021.2 hPa Calm     88 % 0 mm
01:46 -1 °C -2.9 °C 1021.2 hPa Calm     87 % 0 mm
01:51 -0.9 °C -2.8 °C 1021.2 hPa Calm     87 % 0 mm
01:56 -0.9 °C -2.8 °C 1021.2 hPa Calm     87 % 0 mm
02:01 -0.8 °C -2.8 °C 1021.2 hPa Calm     86 % 0 mm
02:06 -0.6 °C -2.8 °C 1021.2 hPa Calm     85 % 0 mm
02:11 -0.6 °C -2.8 °C 1021.6 hPa Calm     85 % 0 mm
02:16 -0.8 °C -3.1 °C 1021.6 hPa Calm     85 % 0 mm
02:21 -1 °C -3.2 °C 1021.6 hPa Calm     85 % 0 mm
02:26 -1 °C -3.1 °C 1021.6 hPa Calm     86 % 0 mm
02:32 -1.1 °C -3.2 °C 1021.6 hPa Calm     86 % 0 mm
02:37 -0.9 °C -2.8 °C 1021.6 hPa Calm     87 % 0 mm
02:42 -0.9 °C -2.9 °C 1021.6 hPa Calm     86 % 0 mm
02:47 -0.9 °C -3 °C 1021.6 hPa Calm     86 % 0 mm
02:52 -0.9 °C -2.9 °C 1021.6 hPa Calm     86 % 0 mm
02:57 -0.8 °C -3 °C 1021.6 hPa Calm     85 % 0 mm
03:02 -0.8 °C -3 °C 1021.9 hPa Calm     85 % 0 mm
03:07 -0.9 °C -3.2 °C 1021.9 hPa Calm     85 % 0 mm
03:12 -1.2 °C -3.2 °C 1021.9 hPa Calm     86 % 0 mm
03:17 -1.3 °C -3.2 °C 1021.9 hPa Calm     87 % 0 mm
03:22 -1.3 °C -3.1 °C 1021.9 hPa Calm     88 % 0 mm
03:27 -1.3 °C -3.1 °C 1021.9 hPa Calm     88 % 0 mm
03:32 -1.4 °C -3.1 °C 1021.9 hPa Calm     88 % 0 mm
03:37 -1.3 °C -3.1 °C 1021.9 hPa Calm     88 % 0 mm
03:42 -1.3 °C -3.1 °C 1021.9 hPa Calm     88 % 0 mm
03:47 -1.3 °C -3.2 °C 1021.9 hPa Calm     87 % 0 mm
03:52 -1.3 °C -3.2 °C 1021.9 hPa Calm     87 % 0 mm
03:57 -1.3 °C -3.2 °C 1021.9 hPa Calm     87 % 0 mm
04:02 -1.2 °C -3.1 °C 1021.9 hPa Calm     87 % 0 mm
04:07 -1.1 °C -3.2 °C 1021.9 hPa Calm     86 % 0 mm
04:12 -1.1 °C -3.1 °C 1022.2 hPa Calm     86 % 0 mm
04:17 -1.1 °C -3.3 °C 1022.2 hPa Calm     85 % 0 mm
04:22 -1.1 °C -3.3 °C 1022.2 hPa Calm     85 % 0 mm
04:27 -1 °C -3.2 °C 1022.2 hPa Calm     85 % 0 mm
04:32 -1 °C -3.2 °C 1022.2 hPa Calm     85 % 0 mm
04:37 -1.1 °C -3.3 °C 1022.6 hPa Calm     85 % 0 mm
04:42 -1.3 °C -3.6 °C 1022.6 hPa Calm     85 % 0 mm
04:47 -1.6 °C -3.6 °C 1022.6 hPa Calm     86 % 0 mm
04:52 -1.7 °C -3.6 °C 1022.6 hPa Calm     87 % 0 mm
04:57 -1.7 °C -3.4 °C 1022.6 hPa Calm     88 % 0 mm
05:02 -1.8 °C -3.6 °C 1022.6 hPa Calm     88 % 0 mm
05:07 -1.9 °C -3.7 °C 1022.6 hPa Calm     88 % 0 mm
05:12 -1.9 °C -3.4 °C 1022.6 hPa Calm     89 % 0 mm
05:17 -1.8 °C -3.4 °C 1022.6 hPa Calm     89 % 0 mm
05:22 -1.8 °C -3.5 °C 1022.6 hPa Calm     88 % 0 mm
05:27 -1.8 °C -3.7 °C 1022.9 hPa Calm     87 % 0 mm
05:32 -1.8 °C -3.7 °C 1022.9 hPa Calm     87 % 0 mm
05:37 -1.8 °C -3.7 °C 1022.9 hPa Calm     87 % 0 mm
05:42 -1.9 °C -3.8 °C 1022.9 hPa Calm     87 % 0 mm
05:47 -1.9 °C -3.8 °C 1022.9 hPa Calm     87 % 0 mm
05:52 -2.1 °C -3.8 °C 1022.9 hPa Calm     88 % 0 mm
05:57 -2.1 °C -3.8 °C 1023.2 hPa Calm     88 % 0 mm
06:02 -2.1 °C -3.8 °C 1023.2 hPa Calm     88 % 0 mm
06:07 -2.2 °C -3.9 °C 1023.2 hPa Calm     88 % 0 mm
06:12 -2.2 °C -3.9 °C 1023.2 hPa Calm     88 % 0 mm
06:17 -2.2 °C -3.9 °C 1023.6 hPa Calm     88 % 0 mm
06:22 -2.3 °C -4.1 °C 1023.6 hPa Calm     88 % 0 mm
06:27 -2.4 °C -4.1 °C 1023.6 hPa Calm     88 % 0 mm
06:32 -2.4 °C -4.1 °C 1023.6 hPa Calm     88 % 0 mm
06:37 -2.4 °C -4.1 °C 1023.6 hPa Calm     88 % 0 mm
06:42 -2.3 °C -4.1 °C 1023.9 hPa Calm     88 % 0 mm
06:47 -2.2 °C -3.9 °C 1023.9 hPa Calm     88 % 0 mm
06:52 -2.2 °C -3.9 °C 1023.9 hPa Calm     88 % 0 mm
06:57 -2.2 °C -3.9 °C 1023.9 hPa Calm     88 % 0 mm
07:02 -2.2 °C -3.9 °C 1024.3 hPa Calm     88 % 0 mm
07:07 -2.1 °C -3.8 °C 1024.3 hPa Calm     88 % 0 mm
07:12 -2 °C -3.7 °C 1024.3 hPa Calm     88 % 0 mm
07:17 -1.8 °C -3.7 °C 1024.3 hPa Calm     87 % 0 mm
07:27 -1.5 °C -3.4 °C 1024.6 hPa Calm     87 % 0 mm
07:32 -1.2 °C -3.1 °C 1024.6 hPa Calm     87 % 0 mm
07:37 -0.9 °C -2.9 °C 1024.6 hPa Calm     86 % 0 mm
07:42 -0.2 °C -2.3 °C 1024.9 hPa Calm     86 % 0 mm
07:47 0.7 °C -1.9 °C 1024.9 hPa ENE 1.9 km/h   83 % 0 mm
07:52 1.4 °C -1.7 °C 1024.9 hPa Calm     80 % 0 mm
07:57 2.1 °C -1.4 °C 1024.9 hPa SE 1.9 km/h 1.9 km/h 78 % 0 mm
08:02 2.6 °C -1.3 °C 1025.3 hPa Calm     76 % 0 mm
08:07 2.9 °C -1.2 °C 1025.3 hPa SSE 1.9 km/h 1.9 km/h 74 % 0 mm
08:12 3.3 °C -1.1 °C 1025.3 hPa Calm     73 % 0 mm
08:17 3.7 °C -1.1 °C 1025.3 hPa ESE 3.7 km/h 3.7 km/h 71 % 0 mm
08:22 3.9 °C -1.1 °C 1025.3 hPa East 1.9 km/h   70 % 0 mm
08:27 4.2 °C -1.2 °C 1025.3 hPa SSE 3.7 km/h 3.7 km/h 68 % 0 mm
08:32 4.4 °C -1 °C 1025.3 hPa Calm     68 % 0 mm
08:37 4.8 °C -1.1 °C 1025.6 hPa SSE 3.7 km/h 3.7 km/h 66 % 0 mm
08:42 5.1 °C -0.9 °C 1025.6 hPa SSE 1.9 km/h 1.9 km/h 65 % 0 mm
08:47 5.4 °C -1.1 °C 1025.6 hPa SSW 3.2 km/h 3.2 km/h 63 % 0 mm
08:53 5.7 °C -1 °C 1025.6 hPa South 5.6 km/h 5.6 km/h 62 % 0 mm
08:58 6.1 °C -0.9 °C 1025.6 hPa SSE 1.6 km/h 1.6 km/h 61 % 0 mm
09:03 6.3 °C -0.9 °C 1025.6 hPa Calm     60 % 0 mm
09:08 6.4 °C -1.2 °C 1025.6 hPa Calm     58 % 0 mm
09:13 6.7 °C -1.3 °C 1025.3 hPa South 5.6 km/h 5.6 km/h 57 % 0 mm
09:18 6.8 °C -1.2 °C 1025.3 hPa SE 3.7 km/h 3.7 km/h 57 % 0 mm
09:23 7.1 °C -1.1 °C 1025.3 hPa SSE 3.7 km/h 3.7 km/h 56 % 0 mm
09:28 7.3 °C -1.1 °C 1025.3 hPa SSW 3.2 km/h 3.2 km/h 55 % 0 mm
09:33 7.5 °C -0.9 °C 1025.3 hPa SSE 3.7 km/h 3.7 km/h 55 % 0 mm
09:38 7.5 °C -1.5 °C 1025.3 hPa SSE 5.6 km/h 5.6 km/h 53 % 0 mm
09:43 7.6 °C -1.1 °C 1025.3 hPa SE 5.6 km/h 5.6 km/h 54 % 0 mm
09:48 7.8 °C -1.5 °C 1025.3 hPa SSE 7.4 km/h 7.4 km/h 52 % 0 mm
09:53 8.1 °C -0.9 °C 1025.3 hPa South 6.4 km/h 6.4 km/h 53 % 0 mm
09:58 8.2 °C -1.1 °C 1025.3 hPa South 3.7 km/h 3.7 km/h 52 % 0 mm
10:03 8.4 °C -0.9 °C 1025.3 hPa NW 5.6 km/h 5.6 km/h 52 % 0 mm
10:08 8.5 °C -0.8 °C 1025.3 hPa West 5.6 km/h 5.6 km/h 52 % 0 mm
10:13 8.4 °C -0.6 °C 1025.3 hPa South 3.7 km/h 3.7 km/h 53 % 0 mm
10:18 8.6 °C -0.9 °C 1025.3 hPa SE 4.8 km/h 4.8 km/h 51 % 0 mm
10:23 8.7 °C -0.7 °C 1025.3 hPa SSE 5.6 km/h 5.6 km/h 52 % 0 mm
10:28 9 °C -0.6 °C 1025.3 hPa SE 9.3 km/h 9.3 km/h 51 % 0 mm
10:33 9 °C -0.3 °C 1024.9 hPa ENE 5.6 km/h 5.6 km/h 52 % 0 mm
10:38 9.1 °C -0.2 °C 1024.9 hPa SSW 1.6 km/h 1.6 km/h 52 % 0 mm
10:43 9.3 °C -0.3 °C 1024.9 hPa South 4.8 km/h 4.8 km/h 51 % 0 mm
10:48 9.6 °C -0.3 °C 1024.9 hPa SW 7.4 km/h 7.4 km/h 50 % 0 mm
10:53 10 °C -0.2 °C 1024.9 hPa SSW 5.6 km/h 5.6 km/h 49 % 0 mm
10:58 10.2 °C -0.3 °C 1024.9 hPa SSE 5.6 km/h 5.6 km/h 48 % 0 mm
11:03 10.2 °C -0.6 °C 1024.9 hPa South 1.9 km/h 1.9 km/h 47 % 0 mm
11:08 10.3 °C -0.2 °C 1024.6 hPa East 5.6 km/h 5.6 km/h 48 % 0 mm
11:13 10.5 °C -0.3 °C 1024.6 hPa South 7.4 km/h 7.4 km/h 47 % 0 mm
11:18 10.5 °C -0.3 °C 1024.6 hPa SE 5.6 km/h 5.6 km/h 47 % 0 mm
11:23 10.7 °C 0.2 °C 1024.6 hPa SSE 3.7 km/h 3.7 km/h 48 % 0 mm
11:28 10.9 °C -0.6 °C 1024.6 hPa SSE 5.6 km/h 5.6 km/h 45 % 0 mm
11:33 11.2 °C 0.3 °C 1024.6 hPa NNW 1.9 km/h   47 % 0 mm
11:38 11.2 °C -0.7 °C 1024.3 hPa South 4.8 km/h 4.8 km/h 44 % 0 mm
11:43 11.2 °C -0.3 °C 1024.3 hPa ESE 4.8 km/h 4.8 km/h 45 % 0 mm
11:48 11.6 °C -0.2 °C 1024.3 hPa ENE 6.4 km/h 6.4 km/h 44 % 0 mm
11:53 11.8 °C -0.7 °C 1024.3 hPa South 7.4 km/h 7.4 km/h 42 % 0 mm
11:54 11.8 °C -0.7 °C 1024.3 hPa SSE 3.7 km/h 3.7 km/h 42 % 0 mm
11:59 11.6 °C -0.6 °C 1024.3 hPa NNW 5.6 km/h 5.6 km/h 43 % 0 mm
12:04 11.5 °C -1.3 °C 1024.3 hPa NW 9.3 km/h 9.3 km/h 41 % 0 mm
12:09 11.5 °C -0.3 °C 1023.9 hPa SSE 1.9 km/h 1.9 km/h 44 % 0 mm
12:14 11.8 °C -1.1 °C 1023.9 hPa SSW 9.3 km/h 9.3 km/h 41 % 0 mm
12:19 12 °C -0.9 °C 1023.9 hPa NNW 5.6 km/h 5.6 km/h 41 % 0 mm
12:24 11.8 °C -0.7 °C 1023.6 hPa Calm     42 % 0 mm
12:25 11.9 °C -0.6 °C 1023.6 hPa Calm     42 % 0 mm
12:30 11.9 °C -1.6 °C 1023.6 hPa NW 3.7 km/h   39 % 0 mm
12:35 12 °C -2.3 °C 1023.6 hPa NNW 5.6 km/h 5.6 km/h 37 % 0 mm
12:40 11.9 °C -2.3 °C 1023.6 hPa Calm     37 % 0 mm
12:45 12.2 °C -1.7 °C 1023.6 hPa SSE 5.6 km/h 5.6 km/h 38 % 0 mm
12:50 12.4 °C -1.2 °C 1023.2 hPa NW 1.9 km/h   39 % 0 mm
12:55 12.3 °C -2.3 °C 1023.2 hPa WSW 5.6 km/h 5.6 km/h 36 % 0 mm
13:00 12.4 °C -2.2 °C 1023.2 hPa SSE 6.4 km/h 6.4 km/h 36 % 0 mm
13:05 12.6 °C -2.4 °C 1023.2 hPa SSE 5.6 km/h 5.6 km/h 35 % 0 mm
13:10 12.8 °C -2.3 °C 1022.9 hPa SE 5.6 km/h 5.6 km/h 35 % 0 mm
13:15 12.9 °C -2.2 °C 1022.9 hPa SSE 5.6 km/h 5.6 km/h 35 % 0 mm
13:20 12.8 °C -2.7 °C 1022.9 hPa NNW 5.6 km/h 5.6 km/h 34 % 0 mm
13:25 12.8 °C -3.1 °C 1022.6 hPa WNW 5.6 km/h 5.6 km/h 33 % 0 mm
13:30 12.5 °C -2.6 °C 1022.6 hPa South 9.3 km/h 9.3 km/h 35 % 0 mm
13:35 12.6 °C -3.3 °C 1022.6 hPa WNW 3.7 km/h 3.7 km/h 33 % 0 mm
13:40 12.6 °C -2.1 °C 1022.6 hPa SSE 3.7 km/h 3.7 km/h 36 % 0 mm
13:45 12.8 °C -2.3 °C 1022.6 hPa ESE 5.6 km/h 5.6 km/h 35 % 0 mm
13:50 12.8 °C -2.3 °C 1022.6 hPa North 5.6 km/h 5.6 km/h 35 % 0 mm
13:55 12.6 °C -2.5 °C 1022.6 hPa NW 3.7 km/h   35 % 0 mm
14:00 12.6 °C -2.1 °C 1022.6 hPa SE 9.3 km/h 9.3 km/h 36 % 0 mm
14:05 12.9 °C -2.6 °C 1022.6 hPa SSE 3.7 km/h 3.7 km/h 34 % 0 mm
14:10 13.3 °C -1.5 °C 1022.6 hPa SSW 1.9 km/h 2.1 km/h 36 % 0 mm
14:15 12.6 °C -3.3 °C 1022.6 hPa NNW 3.7 km/h 3.7 km/h 33 % 0 mm
14:20 12.6 °C -2.1 °C 1022.6 hPa South 5.6 km/h 5.6 km/h 36 % 0 mm
14:25 12.7 °C -2.8 °C 1022.6 hPa North 4.8 km/h 4.8 km/h 34 % 0 mm
14:30 12.7 °C -2.4 °C 1022.6 hPa NW 3.7 km/h 3.7 km/h 35 % 0 mm
14:35 12.8 °C -2.7 °C 1022.6 hPa WNW 5.6 km/h 5.6 km/h 34 % 0 mm
14:40 12.6 °C -2.4 °C 1022.2 hPa West 3.7 km/h   35 % 0 mm
14:45 12.7 °C -3.6 °C 1022.2 hPa NW 5.6 km/h 5.6 km/h 32 % 0 mm
14:50 12.5 °C -2.9 °C 1022.2 hPa South 1.9 km/h 1.9 km/h 34 % 0 mm
14:55 12.7 °C -2.4 °C 1022.2 hPa SSW 5.6 km/h 5.6 km/h 35 % 0 mm
15:00 12.8 °C -2.3 °C 1022.2 hPa ESE 5.6 km/h 5.6 km/h 35 % 0 mm
15:05 12.7 °C -2.4 °C 1022.2 hPa SW 5.6 km/h 5.6 km/h 35 % 0 mm
15:10 12.7 °C -2.8 °C 1022.2 hPa Calm     34 % 0 mm
15:15 12.4 °C -3.4 °C 1022.2 hPa West 1.9 km/h   33 % 0 mm
15:20 12.3 °C -2.8 °C 1022.2 hPa SSE 3.2 km/h 3.2 km/h 35 % 0 mm
15:25 12.2 °C -2.9 °C 1022.2 hPa North 1.9 km/h 1.9 km/h 35 % 0 mm
15:30 12.2 °C -2.5 °C 1022.2 hPa SSW 1.9 km/h 1.9 km/h 36 % 0 mm
15:35 12.2 °C -2.9 °C 1022.2 hPa NW 5.6 km/h 5.6 km/h 35 % 0 mm
15:40 12 °C -3 °C 1022.2 hPa NNW 1.9 km/h 1.9 km/h 35 % 0 mm
15:45 11.9 °C -3.1 °C 1022.2 hPa NW 5.6 km/h 5.6 km/h 35 % 0 mm
15:50 11.8 °C -3.2 °C 1022.2 hPa WSW 5.6 km/h 5.6 km/h 35 % 0 mm
15:55 11.7 °C -3.3 °C 1022.2 hPa WSW 5.6 km/h 5.6 km/h 35 % 0 mm
16:00 11.7 °C -3.7 °C 1022.2 hPa West 3.7 km/h   34 % 0 mm
16:05 11.7 °C -3.3 °C 1022.2 hPa NNW 1.9 km/h 1.9 km/h 35 % 0 mm
16:10 11.6 °C -3.7 °C 1022.2 hPa NW 3.7 km/h   34 % 0 mm
16:15 11.6 °C -3.3 °C 1022.2 hPa Calm     35 % 0 mm
16:20 11.6 °C -3.4 °C 1022.2 hPa WNW 3.7 km/h 3.7 km/h 35 % 0 mm
16:25 11.4 °C -3.9 °C 1022.2 hPa Calm     34 % 0 mm
16:30 11.3 °C -3.7 °C 1022.2 hPa Calm     35 % 0 mm
16:36 11.3 °C -3.3 °C 1022.2 hPa NW 1.6 km/h   36 % 0 mm
16:41 11.3 °C -3.6 °C 1022.2 hPa NNW 1.9 km/h   35 % 0 mm
16:46 11.3 °C -4.1 °C 1022.2 hPa Calm     34 % 0 mm
16:51 11.2 °C -3 °C 1021.9 hPa Calm   0.2 km/h 37 % 0 mm
16:56 11.1 °C -2.7 °C 1022.2 hPa Calm     38 % 0 mm
17:01 10.9 °C -2.8 °C 1021.9 hPa Calm     38 % 0 mm
17:05 10.9 °C -3.6 °C 1021.9 hPa Calm     36 % 0 mm
17:10 10.9 °C -4 °C 1021.9 hPa Calm     35 % 0 mm
17:16 10.7 °C -4.2 °C 1021.9 hPa Calm     35 % 0 mm
17:20 10.6 °C -4.3 °C 1021.9 hPa Calm     35 % 0 mm
17:25 10.4 °C -4.4 °C 1021.9 hPa Calm     35 % 0 mm
17:35 10.1 °C -5.1 °C 1021.9 hPa Calm     34 % 0 mm
17:41 9.9 °C -3.8 °C 1021.9 hPa Calm     38 % 0 mm
17:46 9.7 °C -4.3 °C 1021.9 hPa Calm     37 % 0 mm
17:51 9.5 °C -3.1 °C 1021.9 hPa Calm     41 % 0 mm
17:56 9.2 °C -2.4 °C 1021.9 hPa Calm     44 % 0 mm
18:01 9 °C -2.9 °C 1021.9 hPa Calm     43 % 0 mm
18:06 8.6 °C -2.7 °C 1021.9 hPa Calm     45 % 0 mm
18:11 8.4 °C -2.5 °C 1021.9 hPa Calm     46 % 0 mm
18:16 8.3 °C -2.7 °C 1021.9 hPa Calm     46 % 0 mm
18:21 8 °C -2.9 °C 1021.9 hPa Calm     46 % 0 mm
18:26 7.8 °C -1.9 °C 1021.9 hPa Calm     50 % 0 mm
18:31 7.7 °C -2.4 °C 1021.9 hPa Calm     49 % 0 mm
18:36 7.5 °C -1.7 °C 1021.9 hPa SSE 1.9 km/h 1.9 km/h 52 % 0 mm
18:41 7.2 °C -1.8 °C 1021.9 hPa Calm     53 % 0 mm
18:46 7 °C -2.7 °C 1021.9 hPa Calm     50 % 0 mm
18:51 6.9 °C -2.8 °C 1021.9 hPa Calm     50 % 0 mm
18:56 6.7 °C -2.2 °C 1021.9 hPa Calm     53 % 0 mm
19:01 6.4 °C -1.8 °C 1021.9 hPa Calm     56 % 0 mm
19:06 6.3 °C -0.7 °C 1021.9 hPa Calm     61 % 0 mm
19:11 6.3 °C -1.4 °C 1021.9 hPa Calm     58 % 0 mm
19:16 6.2 °C -0.6 °C 1021.9 hPa Calm     62 % 0 mm
19:21 5.9 °C 0.3 °C 1021.9 hPa Calm     67 % 0 mm
19:26 5.4 °C -0.2 °C 1021.9 hPa Calm     67 % 0 mm
19:31 5.2 °C -0.6 °C 1022.2 hPa Calm     66 % 0 mm
19:36 5.2 °C -0.8 °C 1022.2 hPa Calm     65 % 0 mm
19:41 5.1 °C -0.9 °C 1022.2 hPa Calm     65 % 0 mm
19:46 4.9 °C -1.1 °C 1022.2 hPa Calm     65 % 0 mm
19:51 4.8 °C -0.6 °C 1022.2 hPa Calm     68 % 0 mm
19:56 4.8 °C -0.2 °C 1022.2 hPa Calm     70 % 0 mm
20:01 4.7 °C 0.1 °C 1022.2 hPa Calm     72 % 0 mm
20:06 4.6 °C 0 °C 1022.2 hPa Calm     72 % 0 mm
20:11 4.4 °C -0.3 °C 1022.2 hPa Calm     71 % 0 mm
20:16 4.3 °C -0.3 °C 1022.2 hPa Calm     72 % 0 mm
20:21 4.2 °C -0.4 °C 1022.6 hPa Calm     72 % 0 mm
20:26 4.2 °C -0.4 °C 1022.6 hPa Calm     72 % 0 mm
20:31 4.4 °C -0.4 °C 1022.6 hPa Calm     71 % 0 mm
20:36 4.5 °C -0.7 °C 1022.6 hPa Calm     69 % 0 mm
20:41 4.6 °C -0.8 °C 1022.6 hPa Calm     68 % 0 mm
20:46 4.8 °C -0.8 °C 1022.6 hPa Calm     67 % 0 mm
20:51 4.9 °C -0.7 °C 1022.6 hPa Calm     67 % 0 mm
20:56 4.9 °C -0.9 °C 1022.6 hPa Calm     66 % 0 mm
21:01 4.9 °C -0.9 °C 1022.6 hPa Calm     66 % 0 mm
21:06 5.1 °C -0.6 °C 1022.6 hPa Calm     67 % 0 mm
21:11 5.2 °C 0 °C 1022.6 hPa Calm     69 % 0 mm
21:16 5.4 °C -0.1 °C 1022.6 hPa Calm     68 % 0 mm
21:21 5.4 °C 0.2 °C 1022.6 hPa Calm     69 % 0 mm
21:26 5.3 °C -0.1 °C 1022.6 hPa Calm     68 % 0 mm
21:31 5.3 °C -0.8 °C 1022.6 hPa Calm     65 % 0 mm
21:36 5.3 °C -0.3 °C 1022.6 hPa Calm     67 % 0 mm
21:41 5.3 °C 0.1 °C 1022.6 hPa Calm     69 % 0 mm
21:46 5.3 °C 0.2 °C 1022.6 hPa Calm     70 % 0 mm
21:51 5.2 °C 0.2 °C 1022.6 hPa Calm     70 % 0 mm
21:56 5.2 °C 0.1 °C 1022.6 hPa Calm     70 % 0 mm
22:01 5.2 °C 0.1 °C 1022.6 hPa Calm     70 % 0 mm
22:06 5.1 °C 0.1 °C 1022.9 hPa Calm     70 % 0 mm
22:11 5.1 °C 0.8 °C 1022.9 hPa Calm     74 % 0 mm
22:16 5 °C 0.7 °C 1022.6 hPa Calm     74 % 0 mm
22:21 4.9 °C 0.7 °C 1022.9 hPa Calm     74 % 0 mm
22:26 4.8 °C 0.2 °C 1022.9 hPa Calm     72 % 0 mm
22:31 4.8 °C -0.1 °C 1022.9 hPa Calm     71 % 0 mm
22:33 4.8 °C -0.1 °C 1022.9 hPa Calm     71 % 0 mm
22:38 4.7 °C 0.1 °C 1022.9 hPa Calm     72 % 0 mm
22:43 4.7 °C 0.1 °C 1022.9 hPa Calm     72 % 0 mm
22:48 4.7 °C 0.1 °C 1022.9 hPa Calm     72 % 0 mm
22:53 4.7 °C 0.2 °C 1022.9 hPa Calm     73 % 0 mm
22:58 4.6 °C 0.4 °C 1022.9 hPa Calm     74 % 0 mm
23:03 4.6 °C 0.4 °C 1022.9 hPa Calm     74 % 0 mm
23:08 4.5 °C 0.1 °C 1022.9 hPa Calm     73 % 0 mm
23:13 4.6 °C 0.1 °C 1022.9 hPa Calm     73 % 0 mm
23:18 4.5 °C -0.1 °C 1022.9 hPa Calm     72 % 0 mm
23:23 4.5 °C 0.1 °C 1022.9 hPa Calm     73 % 0 mm
23:28 4.5 °C 0.3 °C 1022.6 hPa Calm     74 % 0 mm
23:33 4.5 °C -0.1 °C 1022.6 hPa Calm     72 % 0 mm
23:38 4.7 °C -0.7 °C 1022.6 hPa Calm     68 % 0 mm
23:43 4.9 °C -0.7 °C 1022.6 hPa Calm     67 % 0 mm
23:48 5 °C -0.8 °C 1022.6 hPa Calm     66 % 0 mm
23:53 5.1 °C -1.2 °C 1022.6 hPa ESE 1.9 km/h   64 % 0 mm
23:58 5.3 °C -1.2 °C 1022.6 hPa Calm     63 % 0 mm
Park Place, Exeter, Tulare County, California, USA
Compliments of Weather Underground - 2.75 mb